"Pseudo-MPEC" for P12osch

Created 2026 Jul 26 22:35:12 UT using Find_Orb

Click here for an explanation of pseudo-MPECs

 
 Astrometry: 
     P12osch*0C2026 07 19.58760323 34 24.319-21 05 42.51   ~7NF5 22.28wXNEOCPF51
     P12osch 0C2026 07 19.59806423 34 26.124-21 05 52.83   ~7NF5 21.24wXNEOCPF51
     P12osch 0C2026 07 19.60849723 34 27.889-21 06 03.01   ~7NF5 20.92wXNEOCPF51
     P12osch 3C2026 07 20.59608623 37 25.308-21 22 14.37   ~7NF5 21.37GVNEOCPT14
     P12osch 3C2026 07 20.59706023 37 25.472-21 22 15.32   ~7NF5 21.30GVNEOCPT14
     P12osch 3C2026 07 20.59803823 37 25.635-21 22 16.29   ~7NF5 21.27GVNEOCPT14
     P12osch  C2026 07 23.37333923 45 28.596-22 08 02.97   ~7NF5 20.8 GWNEOCPH01
     P12osch  C2026 07 23.38489923 45 30.444-22 08 14.67   ~7NF5 20.5 GWNEOCPH01
     P12osch  C2026 07 23.38833223 45 30.995-22 08 18.16   ~7NF5 20.7 GWNEOCPH01
     P12osch  C2026 07 23.39351323 45 31.826-22 08 23.32   ~7NF5 21.2 GWNEOCPH01

Station data:
(F51) Pan-STARRS 1, Haleakala  (N20.707234 W156.255910)  US/Hawaii.
   Observers J. Herman, T. Lowe, P. Minguez, A. Schultz, I. Smith. Measurers
   K. Chambers, T. de Boer, J. Fairlamb, H. Gao, M. Huber, C.-C. Lin, E.
   Magnier, Y. Ramanjooloo, R. Wainscoat, R. Weryk. 1.8-m Ritchey-Chrétien +
   CCD.
(H01) Magdalena Ridge Observatory, Socorro  (N33.984833 W107.189333)  US/New
   Mexico.  Observers W. H. Ryan, E. V. Ryan. Measurer W. H. Ryan. 2.4-m
   f/8.9 reflector + CCD.
(T14) Mauna Kea-UH/Tholen NEO Follow-Up (CFHT)  (N19.825252 W155.468876)
   US/Hawaii.  Observer R. Weryk. 3.6-m Canada-France-Hawaii Telescope.

Orbital elements:  P12osch
   Perihelion 2026 Jul 17.345656 +/- 0.0679 TT =  8:17:44.6 (JD 2461238.845656)
Epoch 2026 Jul 23.0 TT = JDT 2461244.5   Earth MOID: 0.2527      AutoNEOCP
M   1.749976919 +/- 0.019           (J2000 ecliptic)
n   0.309492472 +/- 0.00535         Peri.  205.050788 +/- 0.08
a   2.164558474 +/- 0.025           Node   101.329907 +/- 0.11
e   0.41856628 +/- 0.00568          Incl.    9.951663 +/- 0.07
P   3.18459                H 21.62  G  0.15   U  9.2
q 1.258547271 +/- 0.00223    Q 3.070569676 +/- 0.0477
From 10 observations 2026 July 19-23; mean residual 0".06
Residuals in arcseconds: 
260719 F51  .18-  .02+    260720 T14  .01+  .01+    260723 H01  .03-  .03-    
260719 F51  .16+  .03-    260720 T14  .00   .00     260723 H01  .01-  .04+    
260719 F51  .01+  .01-    260723 H01  .06+  .02-    
260720 T14  .01-  .00     260723 H01  .04-  .01-    

Ephemerides (geocentric):
Date (UTC) HH   RA             Dec           delta  r     elong  mag " sig PA
---- --------  ------------   ------------  ------ ------ -----  --- --------
2026 07 26 23  23 55 12.257   -23 06 51.24  .33738 1.2621 130.8 21.3 1.23  47
2026 07 27 00  23 55 18.778   -23 07 32.39  .33737 1.2622 130.8 21.3 1.25  47
2026 07 27 01  23 55 25.292   -23 08 13.55  .33737 1.2622 130.8 21.3 1.27  47
2026 07 27 02  23 55 31.800   -23 08 54.69  .33736 1.2622 130.9 21.3 1.29  47
2026 07 27 03  23 55 38.301   -23 09 35.84  .33735 1.2623 130.9 21.3 1.31  47
2026 07 27 04  23 55 44.796   -23 10 16.98  .33735 1.2623 130.9 21.3 1.33  47
2026 07 27 05  23 55 51.285   -23 10 58.11  .33734 1.2623 130.9 21.3 1.35  47
2026 07 27 06  23 55 57.767   -23 11 39.24  .33733 1.2624 130.9 21.3 1.37  47
2026 07 27 07  23 56 04.242   -23 12 20.37  .33732 1.2624 130.9 21.3 1.39  47
2026 07 27 08  23 56 10.711   -23 13 01.50  .33732 1.2624 130.9 21.3 1.41  47
2026 07 27 09  23 56 17.174   -23 13 42.62  .33731 1.2625 130.9 21.3 1.43  47
2026 07 27 10  23 56 23.630   -23 14 23.73  .33731 1.2625 130.9 21.3 1.46  46
2026 07 27 11  23 56 30.079   -23 15 04.84  .33730 1.2625 131.0 21.3 1.48  46
2026 07 27 12  23 56 36.522   -23 15 45.95  .33729 1.2626 131.0 21.3 1.50  46
2026 07 27 13  23 56 42.959   -23 16 27.05  .33729 1.2626 131.0 21.3 1.52  46
2026 07 27 14  23 56 49.389   -23 17 08.15  .33728 1.2626 131.0 21.3 1.54  46
2026 07 27 15  23 56 55.812   -23 17 49.25  .33728 1.2627 131.0 21.3 1.57  46
2026 07 27 16  23 57 02.229   -23 18 30.34  .33727 1.2627 131.0 21.3 1.59  46
2026 07 27 17  23 57 08.639   -23 19 11.42  .33727 1.2627 131.0 21.3 1.61  46
2026 07 27 18  23 57 15.042   -23 19 52.50  .33726 1.2628 131.0 21.3 1.63  46
2026 07 27 19  23 57 21.439   -23 20 33.58  .33726 1.2628 131.0 21.3 1.66  46
2026 07 27 20  23 57 27.830   -23 21 14.65  .33725 1.2628 131.1 21.3 1.68  46
2026 07 27 21  23 57 34.214   -23 21 55.72  .33725 1.2629 131.1 21.3 1.70  46
2026 07 27 22  23 57 40.591   -23 22 36.78  .33724 1.2629 131.1 21.3 1.73  46
2026 07 27 23  23 57 46.961   -23 23 17.83  .33724 1.2629 131.1 21.3 1.75  46
2026 07 28 00  23 57 53.325   -23 23 58.89  .33723 1.2630 131.1 21.3 1.77  46
2026 07 28 01  23 57 59.683   -23 24 39.93  .33723 1.2630 131.1 21.3 1.80  45
2026 07 28 02  23 58 06.034   -23 25 20.98  .33723 1.2630 131.1 21.3 1.82  45
2026 07 28 03  23 58 12.378   -23 26 02.01  .33722 1.2631 131.1 21.3 1.84  45
2026 07 28 04  23 58 18.715   -23 26 43.04  .33722 1.2631 131.2 21.3 1.87  45
2026 07 28 05  23 58 25.046   -23 27 24.07  .33721 1.2631 131.2 21.3 1.89  45
2026 07 28 06  23 58 31.370   -23 28 05.09  .33721 1.2632 131.2 21.3 1.92  45
2026 07 28 07  23 58 37.688   -23 28 46.11  .33721 1.2632 131.2 21.3 1.94  45
2026 07 28 08  23 58 43.998   -23 29 27.12  .33721 1.2633 131.2 21.3 1.97  45
2026 07 28 09  23 58 50.302   -23 30 08.12  .33720 1.2633 131.2 21.3 1.99  45
2026 07 28 10  23 58 56.600   -23 30 49.12  .33720 1.2633 131.2 21.3 2.02  45
2026 07 28 11  23 59 02.891   -23 31 30.12  .33720 1.2634 131.2 21.3 2.04  45
2026 07 28 12  23 59 09.175   -23 32 11.11  .33719 1.2634 131.3 21.3 2.07  45
2026 07 28 13  23 59 15.452   -23 32 52.09  .33719 1.2634 131.3 21.3 2.09  45
2026 07 28 14  23 59 21.723   -23 33 33.07  .33719 1.2635 131.3 21.3 2.12  45
2026 07 28 15  23 59 27.987   -23 34 14.04  .33719 1.2635 131.3 21.3 2.14  45
2026 07 28 16  23 59 34.244   -23 34 55.01  .33719 1.2635 131.3 21.3 2.17  45
2026 07 28 17  23 59 40.494   -23 35 35.97  .33718 1.2636 131.3 21.3 2.20  45
2026 07 28 18  23 59 46.738   -23 36 16.92  .33718 1.2636 131.3 21.3 2.22  45
2026 07 28 19  23 59 52.975   -23 36 57.87  .33718 1.2636 131.3 21.3 2.25  45
2026 07 28 20  23 59 59.205   -23 37 38.81  .33718 1.2637 131.3 21.3 2.28  45
2026 07 28 21  00 00 05.428   -23 38 19.75  .33718 1.2637 131.4 21.3 2.30  45
2026 07 28 22  00 00 11.645   -23 39 00.68  .33718 1.2638 131.4 21.3 2.33  45